Theta_e
294 294 294 295 295 294 294 294 294 294 294 294 294 294 294 294 294 293 291 293 286 281 282 283 282 279 280 279 275 279 278 279 279 276 276 276 275 277 276 278 271 271 270 270 272 271 269 282 279 278 287 285 283 282
295 294 294 294 293 293 293 293 293 293 293 293 293 293 293 293 293 293 286 292 292 283 282 286 286 287 284 284 281 281 278 278 280 278 279 279 276 278 277 273 277 272 278 276 276 277 286 284 285 285 283 284 284 282
292 292 292 292 292 292 292 292 292 292 292 292 292 292 292 292 292 291 288 289 285 281 282 282 280 285 287 287 288 278 281 281 281 284 279 277 275 279 274 275 278 276 281 276 276 280 281 283 285 284 283 282 283 281
291 291 291 291 292 292 292 292 291 291 291 292 291 291 291 291 291 291 287 289 286 282 275 278 287 283 288 287 286 286 283 283 282 282 277 275 273 279 274 276 276 281 279 277 277 281 283 283 285 285 284 282 280 279
289 290 290 290 290 291 291 291 290 290 290 290 290 290 290 290 290 290 289 289 288 281 275 277 281 283 284 285 284 284 283 281 279 276 275 273 277 276 277 276 276 281 279 277 276 283 283 283 285 282 282 282 280 277
288 289 289 289 290 290 290 290 289 289 290 290 290 290 290 289 289 285 279 286 289 287 277 271 282 279 282 283 281 280 281 280 279 277 275 277 279 277 272 271 278 280 282 282 281 284 284 284 280 279 279 280 278 276
287 288 289 289 289 289 289 288 288 288 289 289 289 289 288 289 286 280 278 284 288 288 277 272 273 280 280 280 280 280 281 279 278 276 275 275 276 278 273 269 276 279 281 282 283 282 281 283 279 276 275 274 273 272
287 287 288 288 288 288 288 288 287 287 288 288 288 288 288 288 287 282 285 288 287 281 278 270 270 273 277 275 274 280 276 277 276 275 276 274 276 275 269 274 277 279 280 281 281 282 281 280 273 271 270 268 267 266
286 287 287 287 287 287 287 287 287 287 288 287 287 287 285 283 279 281 287 288 286 279 272 271 267 266 278 275 276 276 277 271 278 274 273 275 272 269 274 274 270 265 266 266 271 272 269 270 270 267 267 267 266 265
286 286 286 286 287 287 287 285 284 285 285 285 284 279 274 280 284 284 281 276 276 277 276 270 275 269 274 273 272 272 274 270 267 271 275 271 270 274 257 258 260 259 261 262 266 265 265 266 266 265 265 266 266 263
286 286 287 284 284 284 284 284 283 283 284 281 277 275 281 283 280 276 270 269 271 269 271 271 271 269 275 269 269 273 269 271 265 268 268 267 267 266 254 255 257 258 259 262 264 266 269 270 267 265 263 263 262 260
286 286 286 283 283 282 282 282 282 281 280 280 280 280 278 276 272 268 267 267 266 266 267 268 268 268 269 273 270 271 267 270 263 273 268 265 261 252 252 253 255 256 258 259 262 263 264 265 263 261 259 258 258 258
284 283 283 283 282 282 281 281 281 281 282 281 276 272 268 268 264 263 260 263 263 264 262 262 263 265 267 269 269 270 266 265 273 267 265 252 251 252 252 253 254 255 257 257 258 259 259 259 259 258 257 258 258 257
283 283 282 282 281 281 280 280 281 279 278 271 267 263 264 263 263 260 260 260 258 259 258 259 259 261 265 266 268 265 269 269 264 263 256 250 250 250 252 253 253 253 254 255 256 256 256 255 255 256 256 257 256 256
281 281 281 281 281 280 279 278 276 269 271 268 265 262 262 257 257 256 256 257 254 256 256 258 258 259 261 264 265 263 263 256 248 249 249 250 250 250 250 251 252 252 253 253 254 254 253 254 253 253 254 254 254 254
280 277 277 280 279 277 276 271 267 266 258 262 260 259 256 258 256 254 252 254 253 253 254 255 256 258 259 255 255 246 248 249 246 247 249 250 250 250 250 251 251 251 252 252 252 253 253 252 252 252 253 253 254 254
277 272 278 277 276 272 271 265 263 254 256 256 250 251 252 252 250 250 250 250 252 252 256 256 256 251 254 252 247 246 244 245 247 248 249 249 249 250 251 251 251 251 251 252 252 252 252 253 253 251 249 250 250 250
269 271 275 275 269 266 259 258 257 255 250 251 251 251 250 251 250 250 250 251 251 251 252 248 251 247 245 246 245 247 248 249 249 249 249 250 250 250 251 251 251 251 251 252 252 252 252 251 250 250 250 251 250 250
271 271 272 272 266 261 258 255 256 250 250 253 253 253 251 250 251 251 250 250 251 251 250 248 244 243 243 245 245 247 248 249 248 249 249 251 251 250 250 250 250 250 250 250 250 249 250 250 251 251 251 252 250 250
272 271 269 267 265 260 255 253 257 254 251 252 254 251 251 249 250 250 249 249 249 248 244 243 242 243 244 246 247 247 248 251 250 249 249 250 251 251 251 251 251 251 250 250 250 251 250 249 249 250 251 251 249 249
263 264 263 258 253 252 249 249 252 253 254 251 253 252 250 251 249 248 247 249 246 243 243 244 245 247 248 249 250 250 251 252 252 251 250 249 251 251 251 251 251 250 249 249 248 247 247 247 248 248 247 247 247 248
258 261 254 254 253 251 249 250 250 252 253 252 252 252 249 248 247 247 249 246 245 245 246 246 246 247 248 247 250 251 251 251 251 251 252 252 250 249 249 249 249 247 248 248 247 246 246 247 248 248 247 246 247 246
254 253 248 248 250 249 247 251 250 251 250 249 251 248 247 248 249 251 245 246 246 248 248 248 249 249 249 250 250 250 251 250 249 249 248 247 248 248 248 248 249 248 246 246 247 247 245 247 247 247 247 247 248 247
249 239 239 239 241 241 246 245 248 249 250 248 247 245 245 247 250 247 243 245 246 247 246 249 250 249 249 248 247 246 248 250 249 248 249 248 246 244 245 245 245 244 245 246 246 245 245 245 246 246 246 246 246 246
243 235 237 236 239 239 240 242 242 245 244 245 245 245 245 248 245 244 243 244 245 245 245 247 249 249 248 248 248 247 246 249 248 246 246 247 246 246 246 245 243 242 242 247 246 245 244 244 245 245 245 245 244 244
233 233 235 235 236 236 236 239 238 238 241 242 241 243 247 246 243 241 243 243 244 244 243 243 244 248 246 246 247 246 244 244 249 247 245 244 247 248 247 246 246 245 243 244 246 245 244 243 243 243 244 243 241 242
235 235 235 235 236 237 239 240 240 239 237 237 237 241 244 240 240 242 245 245 244 245 245 245 245 246 246 246 245 244 243 243 244 243 242 242 242 242 245 246 244 243 242 242 243 244 244 243 243 243 243 244 243 242
234 234 233 235 236 238 236 237 236 234 235 236 237 238 238 239 240 242 244 245 245 246 246 245 244 244 244 243 244 245 243 242 242 242 243 243 242 241 241 242 241 246 241 240 242 241 241 242 242 242 241 242 242 242
238 235 233 234 236 236 235 235 235 236 235 235 238 239 239 241 242 243 245 245 247 247 246 246 245 246 245 244 243 243 243 244 246 245 244 244 244 244 241 241 241 241 241 241 242 245 242 242 242 243 241 242 242 240
239 234 236 235 236 238 239 236 237 237 235 235 235 238 242 243 245 246 246 247 246 245 244 244 245 245 245 246 245 244 241 241 242 243 243 242 243 241 240 241 241 241 240 240 242 243 246 244 245 241 241 241 241 241
241 242 242 241 239 241 240 240 238 236 236 239 241 244 242 244 245 247 247 246 247 247 246 244 245 244 244 244 244 245 244 242 237 236 236 238 239 239 240 240 241 240 239 239 240 240 241 241 241 240 240 240 240 241
241 237 239 242 242 242 241 241 244 245 245 245 243 245 245 245 243 246 247 247 247 245 245 244 243 244 243 242 241 240 240 239 239 239 237 240 241 241 242 242 240 240 240 241 241 240 240 239 240 241 241 241 241 240
239 238 238 240 243 243 240 239 245 244 244 243 242 242 242 244 243 246 247 247 246 245 243 243 243 243 242 240 240 240 240 238 238 244 245 248 248 248 246 244 243 241 241 242 243 243 241 241 241 241 241 241 241 241
Wind_Speed
29 29 29 28 26 25 25 24 25 25 25 25 23 23 22 22 20 13 6 10 6 6 13 14 12 11 8 8 9 3 4 4 3 6 6 8 7 6 4 5 10 12 14 9 10 8 20 9 8 10 3 2 3 2
27 26 27 27 28 28 29 29 27 26 27 24 23 24 23 22 22 18 9 7 9 8 7 10 18 22 22 21 11 7 8 4 3 5 4 5 9 6 9 13 10 7 10 7 12 9 1 7 11 8 3 2 2 2
30 30 31 31 31 30 29 27 27 26 26 24 25 22 24 22 22 18 8 7 4 7 14 13 16 18 17 18 16 10 7 8 7 6 6 5 8 2 9 12 16 6 6 6 4 14 16 11 8 5 4 8 5 5
29 30 31 31 31 30 28 27 24 25 23 26 23 20 22 24 23 20 8 5 6 5 7 12 10 15 17 18 20 22 20 16 14 7 6 7 9 7 11 11 13 9 8 8 11 18 13 18 11 11 11 13 10 6
31 33 32 32 31 29 27 25 24 24 22 24 24 24 24 24 24 17 9 8 8 8 5 4 3 7 5 9 14 15 15 15 10 10 10 13 12 12 13 15 15 14 15 12 12 10 6 15 9 5 7 11 9 8
32 35 34 32 30 27 24 27 22 21 24 26 26 26 26 25 23 8 7 9 13 11 7 9 2 16 15 18 17 16 15 13 13 9 9 12 23 13 11 15 21 21 22 19 20 21 17 22 8 3 5 5 6 7
29 33 31 27 24 24 25 27 25 20 26 25 24 23 24 24 12 9 5 3 4 8 6 5 5 6 9 14 12 14 17 9 11 13 14 17 15 14 16 22 29 27 16 17 22 25 24 27 13 6 4 6 8 9
28 29 29 27 28 27 31 30 28 21 21 24 18 19 21 24 21 13 12 20 12 7 5 5 4 5 6 5 7 10 11 10 9 8 6 13 10 12 15 25 28 27 23 22 25 19 13 6 6 7 9 12 13 13
29 31 29 27 33 29 26 28 28 24 19 19 17 19 8 3 5 6 16 19 7 8 4 2 1 7 8 9 9 8 5 5 3 5 5 5 8 10 9 14 11 11 8 15 15 3 2 7 10 10 12 12 14 13
33 33 33 29 25 24 13 1 7 11 10 11 8 4 4 4 3 1 1 4 5 5 4 5 3 9 7 8 7 6 4 8 12 12 10 15 17 17 10 8 7 9 10 12 8 6 3 4 8 10 9 7 11 14
29 30 26 2 7 13 12 10 8 8 5 2 2 4 2 1 3 2 4 5 5 4 2 1 2 3 0 6 5 5 4 5 11 14 15 16 17 3 12 11 11 10 10 11 11 11 9 6 9 11 11 11 13 14
14 14 19 13 16 16 14 13 12 3 0 4 5 1 2 4 4 5 5 3 5 3 3 1 1 2 4 4 6 5 6 5 11 7 12 21 6 12 11 11 11 10 9 8 8 6 7 9 10 13 12 13 14 16
18 17 17 16 15 15 14 14 12 6 4 2 1 1 4 1 6 5 7 4 4 2 3 4 1 3 3 5 6 6 9 8 4 6 7 4 8 10 11 9 8 9 7 7 10 11 13 14 13 14 16 14 16 16
15 16 15 14 14 14 16 17 16 8 4 3 3 5 2 2 2 4 5 4 4 3 4 4 4 3 2 5 6 8 6 3 7 7 4 6 11 12 10 8 7 8 8 9 10 12 14 15 15 15 14 13 16 17
14 13 14 13 14 15 15 12 11 6 2 1 1 5 2 3 2 3 3 1 4 4 4 3 4 2 3 6 3 6 5 2 5 5 5 9 11 9 8 8 7 7 7 9 10 12 14 15 16 17 15 15 16 17
13 8 9 15 13 13 13 6 5 3 4 2 3 3 2 2 3 3 5 2 5 6 3 3 2 3 1 4 4 5 6 3 4 5 7 9 8 7 6 5 6 8 9 10 11 12 14 15 17 18 18 16 16 17
12 3 13 13 12 6 15 4 4 8 6 4 4 4 3 5 4 3 4 5 7 5 1 3 2 3 5 3 3 4 3 4 6 6 5 7 6 6 6 8 9 10 12 13 13 14 15 14 16 18 20 15 16 16
5 5 11 13 7 5 5 7 5 5 7 4 3 4 6 5 3 4 4 4 5 4 4 4 3 6 4 2 2 3 2 2 3 4 5 5 7 8 7 10 10 12 14 14 15 15 15 16 17 13 14 13 14 14
6 7 13 13 6 4 4 5 4 5 4 3 4 4 5 4 6 5 6 4 4 4 3 3 6 3 3 2 3 4 4 3 3 4 6 8 8 9 10 11 12 14 14 14 14 11 11 14 11 8 8 8 9 8
11 17 13 15 7 3 5 4 2 5 3 3 4 5 4 4 3 5 8 7 5 4 7 6 3 3 3 3 4 4 5 1 3 5 7 7 7 9 11 10 9 11 11 12 12 13 10 10 9 8 7 8 8 8
9 9 13 7 5 8 6 3 4 3 3 4 5 2 4 3 7 6 5 5 5 6 4 3 3 3 3 4 3 2 4 3 3 4 6 7 6 8 8 8 9 9 9 9 9 9 10 8 7 7 8 8 7 7
5 12 4 7 5 4 6 4 3 1 2 3 3 3 3 3 4 6 2 8 5 4 4 3 4 4 4 6 6 7 6 8 8 7 9 7 7 7 7 7 7 8 8 8 7 7 7 6 6 7 7 7 7 6
9 6 7 9 6 8 3 5 2 4 2 3 2 4 4 3 4 3 5 5 4 5 6 2 3 5 6 7 8 10 9 8 8 7 7 7 7 7 7 7 7 7 7 7 6 6 6 7 7 6 5 5 5 5
13 11 10 8 10 4 6 5 4 3 3 3 4 4 4 3 2 5 5 3 5 6 6 7 3 5 6 8 7 6 6 6 7 7 6 6 7 7 7 7 6 6 6 4 5 5 5 5 5 5 5 5 5 5
11 13 8 10 6 7 8 6 7 5 5 6 3 4 3 2 4 5 4 4 5 7 7 7 7 6 6 6 5 6 8 6 5 6 6 6 6 6 6 6 6 4 3 3 5 5 4 4 5 5 4 4 4 4
13 8 8 7 5 7 6 5 6 6 5 4 5 3 2 3 5 5 3 4 4 5 6 7 6 4 6 6 4 4 5 5 4 5 3 4 4 4 5 4 3 4 4 3 2 4 4 4 3 3 3 3 2 2
9 6 4 1 2 4 2 2 2 4 5 5 4 6 3 5 4 3 2 3 3 3 4 4 4 5 4 4 4 4 4 5 6 5 3 3 4 4 4 3 4 2 2 3 3 4 3 3 2 2 2 1 2 2
3 4 5 8 3 3 4 4 5 5 3 3 3 5 4 4 3 2 2 3 3 3 2 3 4 4 4 4 3 3 4 3 4 3 4 4 3 3 4 3 3 5 3 2 2 1 0 1 1 2 2 3 2 2
4 3 1 4 2 4 4 4 4 2 1 2 2 3 3 2 2 2 3 3 3 3 4 3 4 2 4 5 4 4 3 2 2 2 3 2 3 3 3 3 3 2 1 2 5 5 7 5 5 4 4 3 3 2
5 1 2 3 5 7 4 1 4 2 1 2 2 1 2 2 3 2 2 4 5 4 3 2 3 3 2 3 3 4 4 4 3 2 2 1 0 2 1 1 1 0 1 2 2 3 5 4 4 1 1 2 2 3
5 3 4 5 4 2 2 1 1 2 2 2 2 4 4 2 1 3 4 3 3 4 5 5 3 3 3 2 1 1 2 2 2 1 1 2 2 2 2 2 1 1 1 1 1 1 2 1 1 2 4 5 5 4
5 5 4 5 3 1 2 3 2 2 2 3 3 2 2 2 3 2 3 3 4 5 6 5 4 3 3 2 1 2 3 3 3 3 3 2 3 3 3 3 2 2 2 2 2 2 3 3 4 4 5 7 6 6
3 2 2 3 2 3 5 5 2 1 3 2 3 2 2 2 3 1 1 1 3 3 4 4 4 3 2 2 2 1 2 2 6 9 8 7 6 5 4 3 2 3 3 4 3 3 4 5 6 6 6 7 7 7
Wind_Direction
280 287 288 291 287 286 286 286 287 292 287 287 287 285 285 284 283 275 259 222 224 251 247 227 210 211 235 228 253 358 275 194 218 234 236 219 234 219 268 179 174 171 177 196 216 236 253 151 124 218 211 167 171 209
292 288 287 284 284 290 288 288 292 286 286 283 282 281 285 281 279 276 268 220 229 234 276 282 247 243 234 240 251 232 257 293 296 269 249 259 239 202 222 241 184 220 215 190 206 213 280 193 224 232 24 302 286 207
300 299 298 297 295 294 291 286 281 281 277 275 276 282 285 282 278 273 268 260 233 246 252 235 234 237 237 239 239 233 224 234 250 277 298 299 268 314 233 230 247 223 215 242 152 246 256 255 255 260 249 252 290 263
299 295 293 291 287 282 282 280 284 279 283 283 278 276 274 276 279 277 264 258 233 269 271 260 231 229 232 224 228 229 248 260 264 254 255 252 257 247 271 277 287 262 153 214 254 265 289 271 252 241 236 239 245 234
301 297 295 289 288 283 279 279 277 285 282 279 275 272 276 271 271 277 269 249 223 248 290 267 242 249 278 245 231 233 234 234 239 244 241 250 254 258 254 265 260 244 243 232 245 253 236 270 296 6 239 231 232 199
303 300 298 290 285 280 284 280 276 279 280 275 284 278 272 272 277 280 262 226 224 215 255 258 260 235 235 225 220 221 217 231 232 236 234 240 244 238 251 260 259 255 250 258 268 267 266 278 304 295 259 228 182 183
301 295 291 288 285 283 277 280 278 279 287 275 272 274 277 275 267 239 240 14 295 206 237 256 237 197 231 234 234 238 243 231 228 234 234 242 240 230 240 246 255 259 268 258 249 260 262 258 254 161 144 110 100 91
292 290 288 285 278 290 283 278 281 277 274 274 273 276 275 277 274 259 240 241 222 267 211 224 230 242 147 236 245 213 229 208 202 221 218 225 243 235 243 248 257 262 259 257 258 255 260 291 90 135 129 132 123 123
288 287 285 286 289 287 295 285 289 281 265 248 267 282 299 246 237 242 243 240 236 238 246 209 187 279 182 234 246 237 226 271 240 248 241 251 260 251 257 273 288 336 323 314 311 316 197 198 179 166 161 160 144 146
284 281 280 288 317 296 303 354 253 236 254 290 298 246 232 212 277 200 35 213 206 202 238 262 259 256 268 247 246 234 240 241 245 251 253 247 253 248 29 358 335 321 314 313 293 255 241 219 182 171 173 151 139 137
292 288 279 328 188 80 80 68 29 341 20 24 227 230 28 251 184 179 203 215 206 220 198 165 234 262 225 246 256 229 241 230 244 241 240 248 250 257 2 354 344 332 320 298 272 281 280 252 173 150 135 123 119 122
29 79 85 100 76 66 54 40 30 37 10 246 284 338 223 201 195 207 194 157 218 233 127 168 99 278 289 277 240 209 233 240 250 229 244 241 62 4 350 344 343 338 342 357 9 36 54 89 106 109 108 107 108 113
104 96 85 76 63 54 43 32 20 353 302 214 24 269 332 78 211 214 199 179 198 93 42 24 280 277 267 238 252 238 230 232 231 238 237 72 3 357 348 342 344 355 11 49 60 71 79 85 89 103 109 109 112 107
108 102 92 73 56 44 33 23 11 12 53 28 343 285 267 225 317 12 3 27 43 22 2 335 260 259 273 248 244 261 230 229 241 237 58 11 359 341 342 352 1 17 33 57 72 82 87 89 89 89 93 104 108 106
96 74 60 48 38 30 23 26 27 28 56 131 295 250 234 81 83 57 12 204 27 331 334 288 252 259 270 263 347 311 260 58 27 16 359 350 345 337 350 5 20 36 50 67 76 81 85 88 88 85 81 87 90 94
119 61 21 22 18 17 6 38 36 79 50 109 104 208 115 206 120 44 14 27 10 325 291 240 272 252 105 359 344 34 301 7 15 338 336 334 353 358 16 39 58 66 66 68 69 76 81 83 86 86 78 76 81 86
75 47 355 359 10 36 21 65 58 46 45 47 51 27 25 65 58 41 353 1 329 287 337 287 241 29 298 99 62 17 347 335 329 332 345 349 1 25 48 63 66 70 72 72 76 77 82 86 87 81 77 71 75 73
54 333 5 1 24 48 41 27 74 65 66 44 69 56 62 36 49 45 353 342 338 354 348 59 354 45 44 25 69 17 358 8 12 5 13 21 35 40 56 67 66 72 77 76 76 77 75 77 77 77 85 86 84 75
74 38 27 11 41 71 66 45 10 87 67 74 104 79 68 87 70 34 18 6 35 28 65 46 56 47 46 15 355 352 351 5 43 46 49 52 57 66 72 70 69 66 64 63 64 64 64 62 68 71 74 78 80 79
72 40 24 30 32 75 82 45 335 80 77 73 72 57 65 52 29 29 32 26 28 51 45 43 34 2 331 342 327 313 314 38 110 95 73 60 54 60 60 66 65 68 69 64 63 62 65 62 49 48 56 67 77 71
34 5 19 45 49 57 71 3 67 44 105 84 133 78 91 66 44 36 33 3 60 35 45 23 345 341 315 293 294 312 345 6 69 83 101 85 59 59 59 54 59 61 65 61 63 59 54 57 57 58 63 63 65 68
2 20 53 6 72 67 77 24 26 11 58 95 93 59 58 45 29 29 21 38 58 20 1 332 340 353 32 28 32 48 65 80 72 73 64 70 65 53 46 48 59 61 58 59 65 72 67 59 62 68 73 73 68 62
23 29 47 12 65 37 29 326 46 16 69 73 78 60 43 50 44 31 69 47 42 356 330 12 37 53 65 61 60 49 46 72 72 63 62 62 54 53 56 51 61 76 77 56 58 69 70 60 60 70 74 70 76 73
34 45 34 40 11 23 320 27 10 19 47 43 52 70 42 35 37 62 62 36 5 356 4 8 79 87 72 58 53 37 26 63 75 59 43 74 73 54 54 62 63 58 56 66 63 65 60 59 57 62 61 69 55 57
64 7 20 9 8 7 23 14 4 15 54 23 66 64 32 323 71 65 42 17 357 8 3 356 49 54 83 82 72 57 28 25 65 76 40 67 96 96 76 69 61 43 342 57 59 64 55 49 47 49 48 48 49 43
66 355 32 355 11 22 349 11 18 7 355 48 44 333 326 65 66 64 43 353 358 360 358 4 356 38 52 24 53 38 11 350 356 78 51 4 13 78 93 92 85 62 22 21 53 73 68 53 55 50 59 53 50 340
48 351 2 78 329 305 8 21 3 27 36 25 354 350 46 65 72 69 55 27 351 2 343 351 349 24 54 60 62 43 25 24 45 76 88 56 42 25 23 61 64 56 24 27 29 32 55 57 47 21 356 311 267 279
90 15 360 340 1 356 17 25 22 22 356 354 261 34 65 35 79 24 353 349 337 333 15 30 32 28 43 47 38 68 66 65 86 112 136 106 77 56 44 51 33 54 31 15 0 30 266 232 253 258 264 278 287 237
18 11 283 6 24 58 49 17 349 343 347 287 360 73 83 51 340 319 353 336 337 39 50 48 45 55 79 78 63 48 38 356 341 66 59 55 5 35 22 12 5 12 348 305 260 218 223 210 223 225 237 258 285 280
348 68 7 33 44 39 6 313 340 15 221 263 285 236 121 66 15 332 9 34 38 38 28 24 8 27 48 62 84 70 43 33 23 44 126 157 234 2 320 320 316 310 270 280 300 304 329 24 352 64 278 271 256 272
317 322 27 37 57 359 325 318 241 215 223 225 238 69 82 109 83 43 45 15 28 33 34 27 42 32 34 46 56 88 79 78 45 7 298 285 287 287 282 267 253 234 236 265 292 311 325 282 257 281 292 298 296 288
357 31 355 23 34 57 3 328 311 44 25 39 33 21 138 109 70 42 11 340 20 26 22 15 4 2 13 333 298 281 276 305 318 327 300 274 272 259 253 242 199 209 229 258 244 241 229 263 286 288 296 296 296 293
333 342 326 319 346 13 15 336 30 67 54 49 37 11 29 26 82 82 101 32 42 15 353 334 317 301 315 275 231 255 251 268 299 308 308 282 257 253 230 201 188 202 231 255 261 262 264 264 279 281 284 283 287 289